[[{"header":{"parameterUnit":"m.s-1","parameterCategory":1,"la1":30.2991,"la2":30.254,"lo1":-89.0895,"lo2":-89.0444,"dy":0.0017,"dx":0.0017,"nx":28,"ny":28,"refTime":"2025-08-30T09:00:00:Z","depth":0,"parameterNumber":2,"parameterNumberName":"U-component_of_WINDS"},"data":[0,0,0,0,0,0,0,0,0,0,0,0,0,0,0,0,0,0,0,0,0,0,0,0,0,0,0,0,0,0,0,0,0,0,0,0,0,0,0,0,0,0,0,0,0,0,0,0,0,0,0,0,0,0,0,0,0,0,1.3301,1.3302,0,1.3332,1.3332,1.3332,1.3243,1.324,1.3237,1.3235,1.327,1.3273,1.3277,0,0,0,0,0,0,0,0,0,0,0,0,0,1.3174,1.3176,1.3301,1.3302,1.3302,1.3331,1.3332,1.3332,1.3243,1.324,1.3237,1.3233,1.3269,1.3273,1.3277,0,0,0,0,0,0,0,0,0,0,0,0,0,1.3219,1.3177,1.3301,1.3261,1.3258,1.3331,1.3332,1.3332,1.3244,1.324,1.3236,1.3232,1.3267,1.3273,1.3278,1.3393,0,0,1.3294,1.3296,0,0,0,0,0,0,0,0,1.3217,1.3224,1.3267,1.3264,1.326,1.3279,1.33,1.3353,1.3245,1.3249,1.3235,1.323,1.3277,1.3281,1.3296,1.3395,1.3396,1.3294,1.3298,1.33,1.3301,0,0,0,0,0,0,0,1.3214,1.3222,1.3313,1.3267,1.3264,1.3244,1.3246,1.3309,1.3286,1.3249,1.3242,1.3247,1.3274,1.3291,1.3296,1.3397,1.3294,1.3299,1.3302,1.3304,1.3599,1.3604,0,0,0,0,0,0,1.3215,1.322,1.3312,1.3314,1.3228,1.325,1.3252,1.3277,1.3285,1.3282,1.325,1.3242,1.3284,1.329,1.3297,1.3438,1.33,1.3305,1.3308,1.3595,1.36,1.3605,0,0,0,0,0,0,1.3212,1.3224,1.3311,1.3266,1.3275,1.3256,1.3286,1.328,1.3297,1.3286,1.3282,1.3271,1.3281,1.3289,1.3371,1.3438,1.3307,1.3312,1.3589,1.3596,1.3603,1.3718,0,0,0,0,0,0,1.3209,1.3224,1.3265,1.3267,1.3278,1.3383,1.329,1.3284,1.3306,1.3296,1.3305,1.3302,1.3278,1.3364,1.3376,1.3443,1.3316,1.3583,1.3592,1.3601,1.3708,1.3728,1.3745,0,0,0,0,0,1.3205,1.3296,1.3268,1.3279,1.3329,1.3387,1.3393,1.3363,1.3311,1.3355,1.3349,1.3302,1.3427,1.3373,1.3386,1.3455,1.3579,1.359,1.36,1.37,1.3724,1.3744,0,0,0,0,0,0,1.3303,1.3295,1.3264,1.3358,1.3374,1.3372,1.3425,1.3388,1.342,1.341,1.3371,1.3374,1.3465,1.3467,1.3406,1.3571,1.3495,1.3509,1.3566,1.3589,1.3607,1.3607,1.332,0,0,0,0,0,1.3335,1.3381,1.3372,1.3456,1.3465,1.3445,1.3468,1.3443,1.3459,1.3466,1.3465,1.3484,1.3528,1.3558,1.3597,1.3707,1.3711,1.3761,1.3779,1.3795,1.3809,1.3874,1.3898,1.364,1.364,1.364,0,0,1.3403,1.3404,1.3435,1.3476,1.3485,1.3537,1.3451,1.3507,1.3546,1.3474,1.3553,1.3554,1.3572,1.367,1.3713,1.3675,1.388,1.3808,1.382,1.3826,1.3887,1.3912,1.3933,1.3647,1.3646,1.3645,0,0,1.3554,1.3557,1.363,1.3642,1.3657,1.3643,1.3661,1.3666,1.3664,1.3741,1.369,1.3737,1.3812,1.3829,1.3848,1.401,1.3971,1.4023,1.4121,1.4185,1.4206,1.4224,1.4288,1.4311,1.4036,1.4037,1.4037,0,1.3636,1.371,1.3672,1.3735,1.3756,1.3693,1.377,1.3783,1.3811,1.383,1.3785,1.3883,1.389,1.3994,1.4035,1.4049,1.4073,1.4024,1.4205,1.4223,1.4239,1.43,1.4324,1.4043,1.4043,1.4042,1.4041,0,1.3814,1.3867,1.3924,1.3954,1.3982,1.405,1.4027,1.406,1.4033,1.4025,1.4109,1.4115,1.4158,1.418,1.4154,1.4283,1.426,1.4211,1.4135,1.4272,1.4329,1.4351,1.4053,1.4051,1.4049,1.4047,0,0,1.4028,1.4039,1.4061,1.4077,1.409,1.4132,1.4199,1.4241,1.4273,1.4295,1.4355,1.4421,1.4378,1.44,1.4375,1.443,1.4567,1.4376,1.4376,1.4417,1.4718,1.4759,1.4786,1.4539,1.4543,1.4546,1.4718,0,1.4182,1.4298,1.4268,1.4385,1.4436,1.4378,1.4438,1.4456,1.445,1.4495,1.4489,1.4541,1.4476,1.449,1.4541,1.4539,1.4628,1.4525,1.46,1.4603,1.4603,1.4814,1.4856,1.5018,1.4739,1.4743,1.4746,0,1.4376,1.4408,1.453,1.4541,1.4561,1.4616,1.4655,1.4696,1.4716,1.4709,1.4735,1.4701,1.4773,1.4693,1.4795,1.4726,1.4754,1.4758,1.4764,1.4774,1.4686,1.4836,1.5068,1.5095,1.4779,1.4776,1.4774,0,1.4529,1.4601,1.4685,1.4699,1.4711,1.4753,1.476,1.4776,1.4805,1.4838,1.4858,1.49,1.4924,1.4959,1.4939,1.4882,1.5047,1.4964,1.5048,1.5049,1.5089,1.5088,1.5336,1.5098,1.5098,1.5097,1.5097,0,1.4707,1.4785,1.4754,1.4807,1.4895,1.4861,1.495,1.4951,1.4966,1.5021,1.4971,1.5024,1.4992,1.5043,1.5028,1.5118,1.5128,1.5128,1.5124,1.5136,1.5137,1.5158,1.5149,1.5103,1.5102,1.5101,1.51,0,1.4893,1.4874,1.4964,1.4969,1.4973,1.5038,1.5045,1.5096,1.5087,1.5157,1.5172,1.516,1.5218,1.52,1.5263,1.5253,1.537,1.5348,1.5364,1.5361,1.5448,1.5443,1.5723,1.576,1.5493,1.5495,1.5497,0,1.5011,1.507,1.5083,1.5116,1.5127,1.518,1.521,1.5179,1.5213,1.5243,1.5292,1.5346,1.5388,1.5485,1.5484,1.5533,1.5516,1.5611,1.5523,1.5536,1.5526,1.5525,1.5534,1.563,1.5633,1.5635,1.5637,0,1.5224,1.5212,1.5256,1.5299,1.5336,1.5368,1.5395,1.5426,1.5398,1.5439,1.5498,1.553,1.5596,1.5653,1.5698,1.5709,1.5672,1.5664,1.5688,1.5704,1.5713,1.5716,1.5418,1.5659,1.5657,1.5655,1.5654,1.5653,1.5383,1.5436,1.5455,1.5508,1.5525,1.5554,1.5604,1.5602,1.565,1.5701,1.568,1.5751,1.5774,1.5832,1.5849,1.5906,1.587,1.5902,1.5911,1.5921,1.5936,1.5699,1.5913,1.5912,1.5912,1.5911,1.5911,0,1.56,1.561,1.5658,1.5699,1.5742,1.5699,1.5729,1.5769,1.5831,1.5855,1.5898,1.597,1.6025,1.6029,1.6083,1.6128,1.6113,1.6144,1.6143,1.6148,1.5961,1.5939,1.6156,1.6156,1.6156,1.6156,1.6156,1.6156,1.5718,1.5807,1.5799,1.5899,1.5908,1.5976,1.5998,1.6026,1.6045,1.6127,1.6173,1.6175,1.6193,1.6248,1.6299,1.6299,1.6324,1.6363,1.6358,1.6184,1.616,1.6137,1.6116,1.6367,1.6368,1.6541,1.6542,1.6544]},{"header":{"parameterUnit":"m.s-1","parameterCategory":1,"la1":30.2991,"la2":30.254,"lo1":-89.0895,"lo2":-89.0444,"dy":0.0017,"dx":0.0017,"nx":28,"ny":28,"refTime":"2025-08-30T09:00:00:Z","depth":0,"parameterNumber":3,"parameterNumberName":"V-component_of_WINDS"},"data":[0,0,0,0,0,0,0,0,0,0,0,0,0,0,0,0,0,0,0,0,0,0,0,0,0,0,0,0,0,0,0,0,0,0,0,0,0,0,0,0,0,0,0,0,0,0,0,0,0,0,0,0,0,0,0,0,0,0,-2.1742,-2.1741,0,-2.1687,-2.1686,-2.1686,-2.1647,-2.1647,-2.1646,-2.1646,-2.1587,-2.1586,-2.1584,0,0,0,0,0,0,0,0,0,0,0,0,0,-2.1809,-2.1808,-2.1742,-2.1741,-2.174,-2.1687,-2.1686,-2.1686,-2.1647,-2.1647,-2.1646,-2.1646,-2.1587,-2.1586,-2.1584,0,0,0,0,0,0,0,0,0,0,0,0,0,-2.177,-2.1808,-2.1742,-2.1715,-2.1712,-2.1687,-2.1686,-2.1685,-2.1647,-2.1647,-2.1646,-2.1646,-2.1588,-2.1586,-2.1584,-2.1581,0,0,-2.1578,-2.1577,0,0,0,0,0,0,0,0,-2.1772,-2.1767,-2.1719,-2.1716,-2.1713,-2.1673,-2.1688,-2.165,-2.1647,-2.1671,-2.1646,-2.1645,-2.1616,-2.1612,-2.1602,-2.1579,-2.1576,-2.1578,-2.1577,-2.1576,-2.1575,0,0,0,0,0,0,0,-2.1775,-2.1769,-2.172,-2.1719,-2.1715,-2.1704,-2.1698,-2.1681,-2.1647,-2.1669,-2.1666,-2.1661,-2.1614,-2.1604,-2.1601,-2.1575,-2.1578,-2.1576,-2.1575,-2.1574,-2.1545,-2.1545,0,0,0,0,0,0,-2.1782,-2.1772,-2.1722,-2.1718,-2.1742,-2.1703,-2.1696,-2.1687,-2.1647,-2.164,-2.1661,-2.1659,-2.1608,-2.1603,-2.1598,-2.1591,-2.1576,-2.1574,-2.1573,-2.1545,-2.1545,-2.1545,0,0,0,0,0,0,-2.1784,-2.1778,-2.1724,-2.1744,-2.1737,-2.1703,-2.1692,-2.1686,-2.1676,-2.1641,-2.1634,-2.1658,-2.1607,-2.1601,-2.1586,-2.1589,-2.1573,-2.1572,-2.1544,-2.1545,-2.1545,-2.1578,0,0,0,0,0,0,-2.1786,-2.1779,-2.1778,-2.1745,-2.1736,-2.1713,-2.1692,-2.1685,-2.1673,-2.167,-2.1636,-2.1629,-2.1606,-2.1589,-2.1584,-2.1586,-2.157,-2.1544,-2.1544,-2.1545,-2.1577,-2.158,-2.1583,0,0,0,0,0,-2.1788,-2.1789,-2.1779,-2.1773,-2.1734,-2.1714,-2.1708,-2.1683,-2.1673,-2.1672,-2.1649,-2.1631,-2.159,-2.1588,-2.1582,-2.1583,-2.1543,-2.1544,-2.1545,-2.1575,-2.1579,-2.1583,0,0,0,0,0,0,-2.1823,-2.1785,-2.1772,-2.1762,-2.1742,-2.1707,-2.1704,-2.1688,-2.1668,-2.1666,-2.1634,-2.1627,-2.1614,-2.1597,-2.1596,-2.1578,-2.1564,-2.1564,-2.1589,-2.1593,-2.1596,-2.1599,-2.1568,0,0,0,0,0,-2.183,-2.1818,-2.1784,-2.1779,-2.1769,-2.1739,-2.1729,-2.1711,-2.1688,-2.1678,-2.1654,-2.1632,-2.1614,-2.1602,-2.1584,-2.1575,-2.1566,-2.1573,-2.1576,-2.1578,-2.1578,-2.157,-2.1572,-2.1548,-2.1548,-2.1548,0,0,-2.1844,-2.1821,-2.1815,-2.1785,-2.1767,-2.1753,-2.1732,-2.1718,-2.1707,-2.1676,-2.166,-2.1642,-2.1614,-2.1602,-2.1595,-2.1587,-2.1583,-2.1579,-2.1582,-2.158,-2.1571,-2.1574,-2.1576,-2.1549,-2.1549,-2.1549,0,0,-2.1861,-2.1843,-2.1836,-2.1819,-2.1792,-2.1772,-2.177,-2.1738,-2.1725,-2.1709,-2.1684,-2.1671,-2.1641,-2.1622,-2.1608,-2.1618,-2.16,-2.1613,-2.1628,-2.1621,-2.1623,-2.1624,-2.1627,-2.1628,-2.1613,-2.1613,-2.1613,0,-2.1881,-2.186,-2.1835,-2.1823,-2.181,-2.1782,-2.1774,-2.1757,-2.1726,-2.1717,-2.1709,-2.167,-2.1649,-2.1631,-2.1634,-2.1624,-2.162,-2.1616,-2.1625,-2.1626,-2.1627,-2.1629,-2.163,-2.1615,-2.1615,-2.1615,-2.1614,0,-2.1885,-2.1872,-2.1869,-2.184,-2.1827,-2.1817,-2.1788,-2.1778,-2.1761,-2.1742,-2.1725,-2.1699,-2.1675,-2.1669,-2.1652,-2.1648,-2.1644,-2.1631,-2.1616,-2.1632,-2.1633,-2.1633,-2.1617,-2.1617,-2.1616,-2.1616,0,0,-2.1922,-2.1879,-2.1879,-2.1865,-2.1833,-2.1821,-2.181,-2.1787,-2.1778,-2.1757,-2.1745,-2.172,-2.1708,-2.1692,-2.1673,-2.1667,-2.1675,-2.1654,-2.1653,-2.1658,-2.1668,-2.1677,-2.1678,-2.1663,-2.1663,-2.1663,-2.1669,0,-2.1934,-2.1913,-2.1889,-2.1875,-2.1861,-2.1835,-2.1824,-2.1803,-2.1784,-2.1769,-2.1748,-2.173,-2.1716,-2.1706,-2.1699,-2.1676,-2.1676,-2.1675,-2.1651,-2.165,-2.1657,-2.1679,-2.1689,-2.1696,-2.167,-2.167,-2.167,0,-2.1944,-2.1926,-2.1911,-2.188,-2.1873,-2.1865,-2.1841,-2.1827,-2.1802,-2.1789,-2.1772,-2.1751,-2.1736,-2.1724,-2.1702,-2.1702,-2.1691,-2.1678,-2.1677,-2.1673,-2.166,-2.1674,-2.1697,-2.1698,-2.1671,-2.1671,-2.1671,0,-2.1971,-2.1942,-2.1929,-2.1919,-2.1882,-2.1877,-2.1861,-2.1836,-2.1823,-2.1802,-2.1793,-2.1771,-2.1758,-2.1741,-2.1714,-2.1708,-2.1694,-2.1681,-2.1682,-2.1682,-2.1679,-2.1679,-2.17,-2.1674,-2.1674,-2.1674,-2.1674,0,-2.1986,-2.1978,-2.1941,-2.1933,-2.1923,-2.1895,-2.1885,-2.1867,-2.1844,-2.1831,-2.1807,-2.1795,-2.1761,-2.1745,-2.1724,-2.1708,-2.1703,-2.1691,-2.1685,-2.1692,-2.1694,-2.1683,-2.1682,-2.1674,-2.1674,-2.1674,-2.1674,0,-2.2014,-2.1989,-2.1973,-2.1941,-2.1932,-2.1926,-2.1897,-2.1888,-2.1868,-2.1852,-2.1846,-2.1814,-2.1794,-2.1766,-2.1737,-2.1723,-2.1709,-2.1701,-2.1718,-2.1714,-2.1716,-2.1716,-2.173,-2.173,-2.1705,-2.1706,-2.1706,0,-2.2024,-2.2017,-2.1984,-2.1974,-2.196,-2.1944,-2.1931,-2.1904,-2.1891,-2.1862,-2.1855,-2.1833,-2.1814,-2.1782,-2.1756,-2.1733,-2.1723,-2.1729,-2.1719,-2.1726,-2.1721,-2.1722,-2.172,-2.1732,-2.1732,-2.1732,-2.1733,0,-2.2045,-2.2033,-2.2016,-2.1995,-2.198,-2.1962,-2.1942,-2.1935,-2.1903,-2.189,-2.1869,-2.1854,-2.1825,-2.1802,-2.1776,-2.1758,-2.174,-2.1736,-2.1735,-2.1742,-2.1751,-2.1745,-2.1723,-2.1736,-2.1735,-2.1735,-2.1735,-2.1735,-2.2063,-2.2055,-2.2031,-2.2013,-2.1995,-2.1977,-2.1967,-2.1946,-2.1928,-2.1903,-2.1887,-2.1867,-2.1841,-2.1803,-2.1787,-2.1769,-2.1762,-2.1761,-2.176,-2.176,-2.1762,-2.1755,-2.1765,-2.1765,-2.1764,-2.1764,-2.1764,0,-2.2081,-2.2064,-2.2048,-2.2022,-2.2007,-2.1992,-2.1969,-2.1958,-2.194,-2.1918,-2.19,-2.1876,-2.1854,-2.1826,-2.1802,-2.1793,-2.1784,-2.1788,-2.1787,-2.1783,-2.177,-2.1773,-2.1796,-2.1796,-2.1796,-2.1796,-2.1796,-2.1796,-2.2089,-2.2075,-2.206,-2.2037,-2.2019,-2.2,-2.1988,-2.1971,-2.1953,-2.1927,-2.191,-2.1892,-2.1867,-2.1841,-2.182,-2.1812,-2.1803,-2.181,-2.1799,-2.1787,-2.1784,-2.1782,-2.1784,-2.1808,-2.1809,-2.1813,-2.1813,-2.1813]}]]